RH
64 64 66 67 64 66 67 66 68 75 74 74 79 81 84 87 95 95 87 91 73 72 70 71 72 71 72 74 75 77 72 73 72
65 66 67 65 64 67 68 69 69 73 76 75 76 81 85 92 95 96 92 83 71 71 73 69 68 69 69 69 67 68 69 65 65
72 68 66 66 65 67 68 69 71 76 76 73 73 78 80 82 85 89 92 78 72 71 72 71 68 68 62 63 62 64 62 61 58
68 67 65 65 66 66 71 74 76 76 77 75 77 78 79 83 86 86 93 73 68 70 69 64 65 62 61 59 64 65 60 60 56
66 65 70 66 68 70 75 76 78 78 75 76 78 80 79 82 83 94 80 66 63 64 65 64 64 62 64 63 63 63 58 68 58
71 74 68 72 72 73 76 78 82 82 84 79 79 80 88 83 78 88 72 64 65 62 62 65 64 62 65 63 64 63 60 62 63
88 65 67 73 75 80 72 83 84 89 97 91 84 92 91 88 76 81 71 63 63 63 63 61 61 59 62 61 59 61 62 61 61
97 88 90 96 91 95 86 94 94 92 90 93 95 93 94 95 86 72 72 68 63 58 57 59 59 61 60 59 60 60 60 61 61
97 98 97 97 97 93 85 94 94 93 92 92 94 94 96 97 92 72 76 70 64 59 57 58 59 60 60 61 60 60 60 59 59
96 96 95 94 91 84 82 92 91 92 89 89 92 94 94 94 97 84 78 76 67 64 65 63 59 60 59 61 61 61 61 61 61
93 90 86 86 82 80 84 87 91 90 86 89 94 95 95 94 93 92 81 75 71 65 65 65 61 57 58 60 60 62 63 63 61
83 82 81 79 82 80 85 87 89 86 78 88 94 95 94 94 89 83 83 85 76 68 62 61 57 57 57 60 62 58 56 56 54
80 78 76 77 85 84 87 88 91 88 83 88 91 96 94 93 89 81 82 83 83 80 67 61 59 59 60 58 56 53 52 52 52
75 73 71 77 85 86 80 93 82 88 87 80 87 92 95 90 78 80 79 83 83 86 74 70 68 61 57 53 51 49 48 49 51
71 70 70 82 85 88 90 89 93 84 80 65 77 83 85 84 85 79 72 80 82 81 79 82 76 64 54 49 47 45 44 47 50
69 70 68 80 84 85 86 93 89 94 92 92 95 95 84 80 81 81 78 77 78 75 78 81 80 74 53 49 45 42 43 46 48
67 67 67 75 83 84 85 85 92 90 84 89 94 95 94 93 78 80 76 73 73 74 67 70 73 77 75 64 48 44 43 46 49
69 71 69 69 76 78 79 82 80 93 89 82 86 98 94 97 94 77 81 78 81 78 72 68 67 76 78 65 58 45 43 45 48
72 72 71 71 75 80 77 79 85 86 82 85 69 79 91 96 97 90 78 75 70 74 76 71 66 74 66 60 52 45 43 45 48
69 73 75 77 80 79 78 82 80 86 84 86 76 74 75 82 92 98 96 90 84 79 71 61 61 66 64 58 55 43 42 44 48
Wind_Speed
14 16 15 15 16 16 18 17 17 16 16 17 17 17 15 11 6 6 8 7 19 20 20 20 20 21 22 21 20 20 21 21 20
17 15 15 16 17 17 17 16 18 17 16 20 19 18 16 7 6 6 6 11 21 22 21 20 19 20 19 17 17 18 19 17 19
15 16 16 16 17 17 15 18 18 18 18 17 18 19 15 8 8 7 5 18 20 20 19 19 18 18 15 15 15 16 16 16 15
16 16 17 16 17 16 14 15 16 18 16 17 19 18 16 7 5 6 4 17 17 18 17 17 16 15 15 15 16 17 15 15 15
15 15 14 15 16 15 13 13 17 19 17 17 17 16 14 7 6 5 6 19 17 16 18 16 16 16 17 17 16 15 16 16 15
9 9 15 13 13 14 13 13 18 18 16 17 15 12 4 5 4 3 13 19 18 17 16 16 16 16 16 16 16 15 15 16 16
5 12 15 13 11 13 13 16 15 12 5 5 10 4 5 4 4 4 14 18 16 17 15 15 16 16 16 15 16 16 16 16 15
4 3 3 4 7 4 6 6 4 7 5 5 5 5 5 3 2 5 12 16 16 15 15 15 15 15 15 15 15 15 15 15 15
4 3 4 4 3 6 5 4 5 6 6 6 6 6 4 3 2 4 13 15 16 14 14 13 14 14 14 15 14 14 14 14 13
3 3 3 4 3 4 5 5 5 6 6 5 6 6 5 6 3 3 11 12 14 15 14 13 12 13 13 14 13 13 13 13 13
4 4 3 4 3 3 4 5 5 4 5 5 5 5 5 5 5 4 6 10 11 13 14 13 12 12 12 13 13 13 14 14 13
6 4 4 4 4 5 5 5 5 5 4 6 5 4 5 5 6 5 4 5 9 8 12 12 12 11 11 12 13 12 12 13 13
5 5 4 4 4 4 5 6 4 4 5 4 4 4 4 5 5 5 4 4 4 6 11 11 11 11 12 12 12 12 11 12 12
5 4 4 5 4 4 6 3 7 5 4 5 4 3 4 4 3 5 5 5 4 3 9 9 9 10 10 10 11 11 10 10 11
6 5 5 4 4 4 3 6 3 4 7 5 4 3 2 2 3 5 3 4 5 5 5 4 3 9 9 10 10 10 10 10 10
7 5 5 5 5 5 6 4 6 3 3 5 3 3 1 2 1 0 1 1 2 3 4 3 2 3 9 8 9 9 9 10 11
7 7 7 7 5 6 7 6 4 3 6 4 3 2 1 2 3 3 4 5 4 4 3 4 4 3 3 5 9 9 9 10 11
7 7 7 8 6 8 9 8 7 4 6 6 5 3 5 3 2 4 3 5 3 3 3 3 3 4 3 5 5 7 7 8 10
6 7 6 6 5 6 8 6 4 5 10 1 1 3 4 4 2 0 2 2 3 4 3 3 4 5 3 5 3 5 6 9 11
6 7 7 6 5 5 7 6 5 5 7 4 3 1 2 1 3 3 3 1 1 1 1 2 3 4 4 3 2 4 6 8 10
Wind_Direction
132 131 129 130 137 138 133 126 123 115 115 113 101 94 88 77 61 55 72 73 90 82 79 74 67 63 59 60 66 66 70 68 64
126 127 133 134 139 139 125 134 132 123 118 109 101 89 78 67 61 57 59 85 83 80 76 73 66 63 59 57 53 57 56 60 55
131 136 136 134 137 127 135 139 128 122 116 115 101 86 77 61 58 56 57 83 81 77 74 73 72 68 68 66 65 64 61 58 60
141 141 137 138 137 131 129 129 136 116 113 111 102 94 84 69 60 66 60 84 79 81 78 75 73 76 75 73 67 63 68 67 65
145 143 137 136 135 132 127 123 118 109 106 102 89 89 86 78 60 67 80 86 84 84 82 81 82 81 76 75 74 73 76 67 68
132 147 139 129 138 134 112 113 106 100 92 91 89 82 74 89 97 78 90 92 87 88 88 88 88 83 83 81 77 74 73 68 65
110 150 144 134 135 126 115 116 111 90 80 77 79 72 71 61 56 78 91 93 100 96 98 93 92 91 86 83 80 74 69 68 61
76 66 72 85 79 72 87 96 74 95 99 78 78 85 70 58 38 106 104 110 108 106 104 102 97 95 91 86 81 77 72 67 63
92 90 84 83 84 103 101 97 97 88 88 99 91 79 76 64 41 74 109 118 110 107 109 105 102 95 89 81 77 73 69 63 59
113 107 104 105 97 108 104 111 109 106 102 97 105 97 92 82 64 47 109 120 121 121 117 114 103 95 89 82 76 72 67 62 56
141 139 137 128 131 137 129 134 125 108 107 101 95 103 91 85 77 61 61 87 108 125 124 119 106 96 92 85 79 70 60 52 47
153 154 160 161 138 131 107 92 95 101 93 98 98 105 101 90 81 68 58 51 45 106 119 113 105 99 97 87 73 68 60 50 42
160 161 172 167 147 143 135 134 109 116 124 122 115 110 99 99 94 86 78 68 52 49 98 106 106 101 91 91 81 71 57 48 36
169 176 178 164 153 148 150 127 142 140 125 131 129 125 132 132 115 110 104 97 88 70 85 89 99 101 97 86 75 63 53 45 36
172 169 164 164 149 143 138 140 92 139 148 124 96 86 97 106 141 152 150 149 133 120 108 86 82 107 97 84 68 56 45 39 30
173 169 163 161 164 172 154 121 137 102 131 104 63 39 134 186 216 101 96 150 153 134 133 130 101 103 112 96 75 53 40 32 25
178 172 181 172 156 165 170 159 131 123 178 135 125 146 302 259 200 184 200 194 173 181 178 153 138 108 100 97 75 58 35 22 15
186 178 174 179 174 180 182 172 165 142 198 195 143 145 205 138 183 219 209 190 191 171 182 166 136 124 98 76 55 60 30 15 5
191 182 177 177 180 180 185 181 167 144 184 246 231 42 130 162 156 264 218 218 212 192 180 157 138 132 117 120 121 54 21 1 352
199 193 183 179 174 178 178 169 181 187 173 178 144 129 70 89 132 176 181 137 162 61 106 117 121 126 130 111 57 42 9 349 339